SAA442 FHAW-FYWH

Flight info

Callsign SAA442
Flight time N/A
Altitude 35000
Route PAKIP DCT 10S008W 12S004W DCT EGNOS/N0481F370 DCT 16S003E 18S008E DCT NEVEP UM431 VEDRY
Aircraft B77W/H-SDE1E2E3FGHIJ2J3J4J5M1RWXY/LB1D1

Departure

Time N/A
Airport RAF Ascension Island (FHAW)

Arrival

Time 2026-04-18 22:40
Airport Hosea Kutako International Airport (FYWH)
Time Latitude Longitude Altitude Speed Heading
2026-04-18 22:11 -21.82815 15.67934 36565 ft 512 kts 141°
2026-04-18 22:11 -21.85372 15.70606 36568 ft 512 kts 141°
2026-04-18 22:12 -21.92970 15.78650 36564 ft 509 kts 141°
2026-04-18 22:12 -21.97973 15.84007 36573 ft 506 kts 141°
2026-04-18 22:13 -22.02951 15.89348 36570 ft 504 kts 141°
2026-04-18 22:13 -22.07913 15.94674 36574 ft 503 kts 141°
2026-04-18 22:14 -22.12866 15.99991 36585 ft 503 kts 141°
2026-04-18 22:14 -22.17824 16.05321 36588 ft 504 kts 141°
2026-04-18 22:15 -22.22794 16.10668 36591 ft 505 kts 141°
2026-04-18 22:15 -22.27769 16.16027 36608 ft 506 kts 141°
2026-04-18 22:16 -22.32763 16.21411 36601 ft 508 kts 141°
2026-04-18 22:16 -22.37769 16.26815 36616 ft 509 kts 141°
2026-04-18 22:17 -22.42780 16.32232 36611 ft 510 kts 141°
2026-04-18 22:17 -22.47794 16.37658 36609 ft 510 kts 140°
2026-04-18 22:18 -22.52784 16.43066 36375 ft 503 kts 140°
2026-04-18 22:18 -22.55250 16.45741 35956 ft 502 kts 140°
2026-04-18 22:18 -22.57726 16.48423 35363 ft 506 kts 140°
2026-04-18 22:19 -22.60220 16.51125 34758 ft 509 kts 140°
2026-04-18 22:19 -22.62720 16.53838 34338 ft 508 kts 139°
2026-04-18 22:19 -22.65204 16.56538 34022 ft 504 kts 139°
2026-04-18 22:19 -22.67662 16.59214 33743 ft 499 kts 139°
2026-04-18 22:20 -22.70072 16.61838 33401 ft 497 kts 139°
2026-04-18 22:20 -22.72504 16.64484 33028 ft 495 kts 139°
2026-04-18 22:20 -22.74961 16.67157 32652 ft 493 kts 139°
2026-04-18 22:20 -22.77345 16.69753 32298 ft 491 kts 139°
2026-04-18 22:21 -22.79749 16.72373 31947 ft 489 kts 139°
2026-04-18 22:21 -22.82174 16.75018 31599 ft 487 kts 139°
2026-04-18 22:21 -22.84525 16.77584 31263 ft 484 kts 139°
2026-04-18 22:21 -22.86886 16.80161 30875 ft 480 kts 139°
2026-04-18 22:22 -22.89234 16.82725 30452 ft 477 kts 139°
2026-04-18 22:22 -22.91563 16.85270 30040 ft 474 kts 139°
2026-04-18 22:22 -22.93882 16.87805 29593 ft 472 kts 139°
2026-04-18 22:22 -22.96185 16.90324 29166 ft 469 kts 139°
2026-04-18 22:23 -22.98470 16.92826 28759 ft 465 kts 139°
2026-04-18 22:23 -23.00738 16.95310 28382 ft 461 kts 139°
2026-04-18 22:23 -23.02970 16.97756 27941 ft 450 kts 139°
2026-04-18 22:23 -23.05153 17.00150 27171 ft 444 kts 139°
2026-04-18 22:24 -23.07296 17.02521 26613 ft 433 kts 134°
2026-04-18 22:24 -23.08944 17.05219 26208 ft 430 kts 112°
2026-04-18 22:24 -23.09693 17.08328 25826 ft 423 kts 92°
2026-04-18 22:24 -23.09574 17.11480 25417 ft 413 kts 74°
2026-04-18 22:25 -23.08687 17.14389 24985 ft 401 kts 56°
2026-04-18 22:25 -23.07174 17.16859 24571 ft 388 kts 42°
2026-04-18 22:25 -23.05276 17.18871 24163 ft 376 kts 29°
2026-04-18 22:25 -23.03069 17.20232 23770 ft 358 kts 16°
2026-04-18 22:26 -23.00800 17.21322 23410 ft 355 kts 16°
2026-04-18 22:26 -22.98545 17.22389 23034 ft 352 kts 16°
2026-04-18 22:26 -22.96306 17.23453 22652 ft 350 kts 16°
2026-04-18 22:26 -22.94086 17.24521 22271 ft 348 kts 17°
2026-04-18 22:27 -22.91879 17.25591 21900 ft 346 kts 17°
2026-04-18 22:27 -22.89690 17.26657 21522 ft 344 kts 17°
2026-04-18 22:27 -22.87521 17.27716 21136 ft 341 kts 17°
2026-04-18 22:27 -22.85365 17.28772 20778 ft 338 kts 17°
2026-04-18 22:28 -22.83232 17.29819 20415 ft 335 kts 17°
2026-04-18 22:28 -22.81118 17.30857 20051 ft 333 kts 17°
2026-04-18 22:28 -22.79008 17.31891 19682 ft 331 kts 17°
2026-04-18 22:28 -22.76916 17.32913 19313 ft 329 kts 17°
2026-04-18 22:29 -22.74836 17.33932 18949 ft 327 kts 17°
2026-04-18 22:29 -22.72771 17.34943 18586 ft 324 kts 18°
2026-04-18 22:29 -22.70720 17.35947 18228 ft 323 kts 18°
2026-04-18 22:29 -22.68696 17.36978 17847 ft 321 kts 25°
2026-04-18 22:30 -22.67020 17.38561 17496 ft 332 kts 48°
2026-04-18 22:30 -22.65830 17.40758 17174 ft 336 kts 56°
2026-04-18 22:30 -22.64729 17.43024 16811 ft 345 kts 57°
2026-04-18 22:30 -22.63596 17.45354 16431 ft 353 kts 57°
2026-04-18 22:31 -22.62445 17.47702 16045 ft 354 kts 57°
2026-04-18 22:31 -22.61288 17.50045 15644 ft 352 kts 57°
2026-04-18 22:31 -22.60132 17.52363 15269 ft 349 kts 57°
2026-04-18 22:31 -22.58991 17.54649 15091 ft 340 kts 57°
2026-04-18 22:32 -22.57863 17.56901 14645 ft 341 kts 57°
2026-04-18 22:32 -22.56738 17.59141 14225 ft 333 kts 57°
2026-04-18 22:32 -22.55660 17.61296 13811 ft 319 kts 57°
2026-04-18 22:32 -22.54627 17.63364 13449 ft 309 kts 56°
2026-04-18 22:33 -22.53594 17.65416 13127 ft 313 kts 57°
2026-04-18 22:33 -22.52551 17.67495 12748 ft 314 kts 57°
2026-04-18 22:33 -22.51510 17.69569 12384 ft 314 kts 57°
2026-04-18 22:33 -22.50473 17.71636 12013 ft 309 kts 57°
2026-04-18 22:34 -22.49406 17.73552 11644 ft 294 kts 45°
2026-04-18 22:34 -22.47827 17.74855 11309 ft 284 kts 19°
2026-04-18 22:34 -22.45935 17.75381 11054 ft 278 kts
2026-04-18 22:34 -22.44031 17.75303 10733 ft 272 kts 351°
2026-04-18 22:35 -22.42240 17.74843 10408 ft 260 kts 330°
2026-04-18 22:35 -22.40867 17.73635 10138 ft 253 kts 309°
2026-04-18 22:35 -22.39907 17.72052 9828 ft 251 kts 295°
2026-04-18 22:35 -22.39445 17.70265 9520 ft 247 kts 281°
2026-04-18 22:36 -22.39204 17.68444 9229 ft 243 kts 279°
2026-04-18 22:36 -22.39091 17.66640 8891 ft 239 kts 263°
2026-04-18 22:36 -22.39692 17.65003 8660 ft 231 kts 244°
2026-04-18 22:36 -22.40434 17.63535 8409 ft 214 kts 247°
2026-04-18 22:37 -22.41076 17.62144 8152 ft 199 kts 248°
2026-04-18 22:37 -22.41670 17.60846 7911 ft 187 kts 247°
2026-04-18 22:37 -22.42246 17.59587 7715 ft 187 kts 247°
2026-04-18 22:37 -22.42811 17.58361 7441 ft 177 kts 246°
2026-04-18 22:38 -22.43350 17.57184 7215 ft 175 kts 246°
2026-04-18 22:38 -22.43886 17.56016 6969 ft 169 kts 246°
2026-04-18 22:38 -22.44396 17.54906 6743 ft 162 kts 246°
2026-04-18 22:38 -22.44899 17.53811 6540 ft 163 kts 246°
2026-04-18 22:39 -22.45401 17.52716 6325 ft 162 kts 245°
2026-04-18 22:39 -22.45901 17.51633 6089 ft 159 kts 246°
2026-04-18 22:39 -22.46385 17.50569 5890 ft 156 kts 244°
2026-04-18 22:39 -22.46866 17.49535 5698 ft 153 kts 245°
2026-04-18 22:40 -22.47333 17.48527 5570 ft 144 kts 244°
2026-04-18 22:40 -22.47690 17.47767 5575 ft 87 kts 246°
2026-04-18 22:40 -22.47872 17.47353 5580 ft 40 kts 243°
2026-04-18 22:40 -22.47964 17.47154 5583 ft 26 kts 244°
2026-04-18 22:41 -22.48044 17.46980 5584 ft 26 kts 242°
2026-04-18 22:41 -22.48127 17.46807 5601 ft 26 kts 243°
2026-04-18 22:41 -22.48205 17.46631 5606 ft 26 kts 247°
2026-04-18 22:41 -22.48283 17.46455 5596 ft 26 kts 243°
2026-04-18 22:42 -22.48358 17.46304 5600 ft 4 kts 237°
2026-04-18 22:42 -22.48379 17.46294 5601 ft 4 kts 173°
2026-04-18 22:42 -22.48406 17.46301 5601 ft 4 kts 166°
2026-04-18 22:42 -22.48433 17.46306 5605 ft 4 kts 172°
2026-04-18 22:43 -22.48460 17.46305 5608 ft 4 kts 189°
2026-04-18 22:43 -22.48487 17.46298 5605 ft 4 kts 191°
2026-04-18 22:43 -22.48518 17.46295 5613 ft 5 kts 184°
2026-04-18 22:43 -22.48555 17.46301 5613 ft 6 kts 163°
2026-04-18 22:44 -22.48602 17.46309 5613 ft 8 kts 191°
2026-04-18 22:44 -22.48607 17.46308 5607 ft 0 kts 192°